Regional Weather Roundup
Issued by NWS

Home | Current Version | Previous Version | Text Only | Print | Product List | Glossary Off
Versions: 1 2 3 4 5 6 7 8 9 10 11 12 13 14 15 16 17 18 19 20 21 22 23 24 25 26 27 28 29 30 31 32 33 34 35 36 37 38 39 40 41 42 43 44 45 46 47 48 49 50

767
ASUS43 KBIS 291302
RWRND

NORTH DAKOTA REGIONAL WEATHER ROUNDUP
NATIONAL WEATHER SERVICE BISMARCK ND
800 AM CDT THU JUN 29 2017

NOTE: "FAIR" INDICATES FEW OR NO CLOUDS BELOW 12,000 FEET WITH NO
SIGNIFICANT WEATHER AND/OR OBSTRUCTIONS TO VISIBILITY.


NDZ001>003-009>011-017-291400-
NORTHWEST NORTH DAKOTA

CITY           SKY/WX    TMP DP  RH WIND       PRES   REMARKS
WILLISTON      MOSUNNY   61  49  64 NW3       29.81S
MINOT          PTSUNNY   61  52  72 SW3       29.80S
MINOT AFB      MOSUNNY   61  54  78 W3        29.79S
$$

NDZ018>021-031>035-040>046-291400-
SOUTHWEST NORTH DAKOTA

CITY           SKY/WX    TMP DP  RH WIND       PRES   REMARKS
BISMARCK       CLOUDY    60  57  89 CALM      29.81R
DICKINSON      PTSUNNY   59  47  64 E7        29.79S
GARRISON         N/A     60  53  77 N5        29.80R
HETTINGER ARPT CLOUDY    60  49  66 SW6       29.83R
$$

NDZ004>008-012>016-024-026-027-054-291400-
NORTHEAST NORTH DAKOTA

CITY           SKY/WX    TMP DP  RH WIND       PRES   REMARKS
GRAND FORKS    FOG       61  61 100 N6        29.75R VSB 1/8
GRND FRKS AFB  CLOUDY    61  61 100 NE6       29.76R
DEVILS LAKE    MOSUNNY   62  59  90 W3        29.79R
$$

NDZ022-023-025-028>030-036>039-047>053-291400-
SOUTHEAST NORTH DAKOTA

CITY           SKY/WX    TMP DP  RH WIND       PRES   REMARKS
FARGO          CLOUDY    63  60  90 N5        29.77R
JAMESTOWN      CLOUDY    63  56  78 W3        29.79R
$$





USA.gov is the U.S. government's official web portal to all federal, state and local government web resources and services.